TimeCST,TemperatureF,Dew PointF,Humidity,Sea Level PressureIn,VisibilityMPH,Wind Direction,Wind SpeedMPH,Gust SpeedMPH,PrecipitationIn,Events,Conditions,WindDirDegrees,DateUTC
12:56 AM,33.1,26.1,75,29.58,10.0,SSW,3.5,-,N/A,,Overcast,210,2012-02-22 06:56:00
1:56 AM,32.0,26.1,79,29.56,10.0,Calm,Calm,-,N/A,,Overcast,0,2012-02-22 07:56:00
2:56 AM,30.9,26.1,82,29.54,10.0,SE,3.5,-,N/A,,Overcast,130,2012-02-22 08:56:00
3:56 AM,30.9,27.0,85,29.52,10.0,Calm,Calm,-,N/A,,Overcast,0,2012-02-22 09:56:00
4:56 AM,32.0,27.0,82,29.51,10.0,Calm,Calm,-,0.00,,Overcast,0,2012-02-22 10:56:00
5:56 AM,32.0,28.4,87,29.47,10.0,WNW,4.6,-,N/A,,Mostly Cloudy,290,2012-02-22 11:56:00
6:56 AM,30.9,27.0,85,29.52,10.0,WNW,9.2,-,N/A,,Partly Cloudy,290,2012-02-22 12:56:00
7:56 AM,30.9,26.1,82,29.52,10.0,WNW,6.9,-,N/A,,Partly Cloudy,290,2012-02-22 13:56:00
8:56 AM,35.1,28.9,78,29.53,10.0,WNW,10.4,-,N/A,,Partly Cloudy,300,2012-02-22 14:56:00
9:56 AM,37.9,30.9,76,29.52,10.0,NW,10.4,-,N/A,,Partly Cloudy,310,2012-02-22 15:56:00
10:56 AM,39.0,33.1,79,29.51,10.0,West,9.2,-,N/A,,Scattered Clouds,280,2012-02-22 16:56:00
11:09 AM,39.2,33.8,81,29.47,10.0,West,10.4,-,N/A,,Mostly Cloudy,270,2012-02-22 17:09:00
11:18 AM,37.4,32.0,81,29.47,10.0,WNW,10.4,-,N/A,,Mostly Cloudy,290,2012-02-22 17:18:00
11:52 AM,39.2,33.8,81,29.47,10.0,West,10.4,-,N/A,,Mostly Cloudy,260,2012-02-22 17:52:00
11:56 AM,39.9,33.1,77,29.51,10.0,WNW,10.4,-,N/A,,Mostly Cloudy,290,2012-02-22 17:56:00
12:05 PM,41.0,33.8,76,29.47,10.0,WNW,8.1,-,N/A,,Mostly Cloudy,290,2012-02-22 18:05:00
12:56 PM,42.1,33.1,70,29.48,10.0,WNW,11.5,16.1,N/A,,Scattered Clouds,300,2012-02-22 18:56:00
1:56 PM,44.1,33.1,65,29.46,10.0,WNW,12.7,-,N/A,,Partly Cloudy,290,2012-02-22 19:56:00
2:56 PM,44.1,30.9,60,29.46,10.0,WNW,17.3,-,N/A,,Partly Cloudy,300,2012-02-22 20:56:00
3:56 PM,45.0,30.0,56,29.44,10.0,NNW,11.5,-,N/A,,Partly Cloudy,330,2012-02-22 21:56:00
4:56 PM,43.0,28.9,58,29.44,10.0,NW,9.2,-,N/A,,Partly Cloudy,320,2012-02-22 22:56:00
5:56 PM,39.9,28.9,65,29.44,10.0,Calm,Calm,-,N/A,,Clear,0,2012-02-22 23:56:00
6:56 PM,36.0,28.0,73,29.43,10.0,Calm,Calm,-,N/A,,Clear,0,2012-02-23 00:56:00
7:56 PM,32.0,28.0,85,29.44,10.0,Calm,Calm,-,N/A,,Clear,0,2012-02-23 01:56:00
8:56 PM,30.9,27.0,85,29.42,10.0,Calm,Calm,-,N/A,,Clear,0,2012-02-23 02:56:00
9:56 PM,30.0,27.0,88,29.41,10.0,Calm,Calm,-,N/A,,Clear,0,2012-02-23 03:56:00
10:56 PM,32.0,28.0,85,29.40,10.0,Calm,Calm,-,N/A,,Mostly Cloudy,0,2012-02-23 04:56:00
11:56 PM,32.0,28.9,88,29.40,10.0,Calm,Calm,-,N/A,,Overcast,0,2012-02-23 05:56:00